SWA2422 KHOU-KSTL

Flight info

Callsign SWA2422
Flight time 1h 34m
Altitude 39000
Route INDIE8 TPAKK LIT ARG BOOSH3
Aircraft B738/M-SADE2E3GIJ4RWZ/LB1D1

Departure

Time 2026-05-05 12:39
Airport William P. Hobby Airport (KHOU)

Arrival

Time 2026-05-05 14:13
Airport St. Louis Lambert International Airport (KSTL)
Time Latitude Longitude Altitude Speed Heading
2026-05-05 12:06 29.65207 -95.27859 51 ft 0 kts
2026-05-05 12:33 29.65187 -95.27859 51 ft 4 kts
2026-05-05 12:33 29.65165 -95.27858 49 ft 2 kts
2026-05-05 12:33 29.65139 -95.27858 51 ft 4 kts 359°
2026-05-05 12:34 29.65131 -95.27858 51 ft 0 kts 359°
2026-05-05 12:36 29.65135 -95.27860 51 ft 2 kts 343°
2026-05-05 12:36 29.65157 -95.27889 51 ft 8 kts 315°
2026-05-05 12:37 29.65211 -95.27959 50 ft 15 kts 316°
2026-05-05 12:37 29.65296 -95.28055 49 ft 18 kts 313°
2026-05-05 12:37 29.65336 -95.28170 48 ft 17 kts 244°
2026-05-05 12:37 29.65299 -95.28297 51 ft 16 kts 252°
2026-05-05 12:38 29.65238 -95.28403 51 ft 16 kts 244°
2026-05-05 12:38 29.65220 -95.28524 48 ft 15 kts 257°
2026-05-05 12:38 29.65132 -95.28564 51 ft 15 kts 176°
2026-05-05 12:38 29.65034 -95.28477 48 ft 32 kts 131°
2026-05-05 12:39 29.64729 -95.28114 49 ft 99 kts 134°
2026-05-05 12:39 29.64092 -95.27362 52 ft 162 kts 134°
2026-05-05 12:39 29.63247 -95.26387 680 ft 169 kts 135°
2026-05-05 12:39 29.62402 -95.25430 1543 ft 173 kts 134°
2026-05-05 12:40 29.61507 -95.24402 1904 ft 195 kts 136°
2026-05-05 12:40 29.60493 -95.23233 2105 ft 217 kts 138°
2026-05-05 12:40 29.59514 -95.21829 2306 ft 241 kts 115°
2026-05-05 12:40 29.59391 -95.19830 2598 ft 266 kts 79°
2026-05-05 12:41 29.60226 -95.17886 3125 ft 285 kts 53°
2026-05-05 12:41 29.61815 -95.16479 3814 ft 293 kts 22°
2026-05-05 12:41 29.63780 -95.16034 4571 ft 291 kts 358°
2026-05-05 12:41 29.65810 -95.16144 5299 ft 293 kts 352°
2026-05-05 12:42 29.67841 -95.16384 6040 ft 295 kts 350°
2026-05-05 12:42 29.69887 -95.16646 6798 ft 297 kts 350°
2026-05-05 12:42 29.71947 -95.16895 7561 ft 299 kts 351°
2026-05-05 12:42 29.74026 -95.17129 8267 ft 302 kts 351°
2026-05-05 12:43 29.76131 -95.17352 8985 ft 304 kts 351°
2026-05-05 12:43 29.78245 -95.17566 9698 ft 307 kts 352°
2026-05-05 12:43 29.80368 -95.17772 10481 ft 308 kts 351°
2026-05-05 12:43 29.82571 -95.17985 10713 ft 329 kts 352°
2026-05-05 12:44 29.84893 -95.18206 10882 ft 349 kts 352°
2026-05-05 12:44 29.87364 -95.18437 11242 ft 361 kts 352°
2026-05-05 12:44 29.89879 -95.18666 11969 ft 360 kts 352°
2026-05-05 12:44 29.92367 -95.18885 12834 ft 358 kts 352°
2026-05-05 12:45 29.94861 -95.19111 13531 ft 361 kts 351°
2026-05-05 12:45 29.97374 -95.19341 14209 ft 364 kts 351°
2026-05-05 12:45 29.99900 -95.19573 14940 ft 365 kts 351°
2026-05-05 12:45 30.02429 -95.19805 15759 ft 364 kts 350°
2026-05-05 12:46 30.04966 -95.20036 16427 ft 367 kts 349°
2026-05-05 12:46 30.07515 -95.20270 17133 ft 368 kts 349°
2026-05-05 12:46 30.10073 -95.20505 17833 ft 369 kts 349°
2026-05-05 12:46 30.12642 -95.20740 18515 ft 371 kts 348°
2026-05-05 12:47 30.15224 -95.20977 19104 ft 374 kts 348°
2026-05-05 12:47 30.17838 -95.21218 19596 ft 380 kts 348°
2026-05-05 12:47 30.20491 -95.21462 20092 ft 384 kts 348°
2026-05-05 12:47 30.23168 -95.21708 20637 ft 387 kts 348°
2026-05-05 12:48 30.25863 -95.21955 21152 ft 391 kts 348°
2026-05-05 12:48 30.28627 -95.21937 21629 ft 404 kts 357°
2026-05-05 12:48 30.31425 -95.21422 22068 ft 418 kts
2026-05-05 12:48 30.34234 -95.20396 22522 ft 427 kts 11°
2026-05-05 12:49 30.37044 -95.19238 22975 ft 430 kts 11°
2026-05-05 12:49 30.39877 -95.18085 23391 ft 433 kts 10°
2026-05-05 12:49 30.42744 -95.16952 23756 ft 437 kts
2026-05-05 12:49 30.45625 -95.15757 24105 ft 446 kts 14°
2026-05-05 12:50 30.48442 -95.14132 24499 ft 456 kts 20°
2026-05-05 12:50 30.51215 -95.12335 24952 ft 457 kts 21°
2026-05-05 12:50 30.53993 -95.10532 25345 ft 459 kts 20°
2026-05-05 12:50 30.56802 -95.08760 25734 ft 460 kts 19°
2026-05-05 12:51 30.59630 -95.07008 26101 ft 462 kts 19°
2026-05-05 12:51 30.62465 -95.05225 26467 ft 465 kts 20°
2026-05-05 12:51 30.65304 -95.03407 26811 ft 467 kts 20°
2026-05-05 12:51 30.68152 -95.01569 27136 ft 470 kts 20°
2026-05-05 12:52 30.71010 -94.99717 27482 ft 471 kts 20°
2026-05-05 12:52 30.73877 -94.97862 27800 ft 473 kts 20°
2026-05-05 12:52 30.76764 -94.95997 28104 ft 475 kts 20°
2026-05-05 12:52 30.79658 -94.94128 28403 ft 476 kts 20°
2026-05-05 12:53 30.82561 -94.92254 28683 ft 479 kts 20°
2026-05-05 12:53 30.85440 -94.90396 28960 ft 480 kts 20°
2026-05-05 12:53 30.88363 -94.88507 29244 ft 482 kts 19°
2026-05-05 12:53 30.91299 -94.86608 29502 ft 483 kts 19°
2026-05-05 12:54 30.97196 -94.82790 30049 ft 486 kts 19°
2026-05-05 12:54 31.00141 -94.80878 30405 ft 484 kts 19°
2026-05-05 12:54 31.03084 -94.78967 30771 ft 483 kts 19°
2026-05-05 12:55 31.06023 -94.77060 31080 ft 484 kts 19°
2026-05-05 12:55 31.08961 -94.75155 31394 ft 484 kts 19°
2026-05-05 12:55 31.11897 -94.73244 31756 ft 482 kts 19°
2026-05-05 12:55 31.14822 -94.71342 32134 ft 481 kts 19°
2026-05-05 12:56 31.17744 -94.69441 32452 ft 481 kts 19°
2026-05-05 12:56 31.20669 -94.67538 32731 ft 482 kts 19°
2026-05-05 12:56 31.23590 -94.65636 33068 ft 481 kts 19°
2026-05-05 12:56 31.26510 -94.63732 33393 ft 480 kts 18°
2026-05-05 12:57 31.29430 -94.61826 33693 ft 480 kts 18°
2026-05-05 12:57 31.32348 -94.59920 33958 ft 481 kts 18°
2026-05-05 12:57 31.35272 -94.58009 34231 ft 481 kts 18°
2026-05-05 12:57 31.38190 -94.56098 34577 ft 480 kts 18°
2026-05-05 12:58 31.41096 -94.54194 34951 ft 478 kts 18°
2026-05-05 12:58 31.43991 -94.52298 35275 ft 476 kts 18°
2026-05-05 12:58 31.46881 -94.50404 35524 ft 476 kts 18°
2026-05-05 12:58 31.48799 -94.49147 35682 ft 477 kts 18°
2026-05-05 12:59 31.51680 -94.47209 35952 ft 479 kts 19°
2026-05-05 12:59 31.54546 -94.45223 36270 ft 478 kts 19°
2026-05-05 12:59 31.57389 -94.43226 36572 ft 477 kts 19°
2026-05-05 13:00 31.62876 -94.39362 37160 ft 473 kts 19°
2026-05-05 13:00 31.65678 -94.37390 37587 ft 467 kts 19°
2026-05-05 13:01 31.73945 -94.31603 38313 ft 464 kts 19°
2026-05-05 13:01 31.76730 -94.29662 38433 ft 466 kts 19°
2026-05-05 13:01 31.79517 -94.27717 38599 ft 466 kts 19°
2026-05-05 13:01 31.82293 -94.25774 38841 ft 465 kts 19°
2026-05-05 13:02 31.87874 -94.21866 38873 ft 468 kts 19°
2026-05-05 13:02 31.93453 -94.17942 38876 ft 465 kts 19°
2026-05-05 13:03 31.98988 -94.14042 38868 ft 462 kts 19°
2026-05-05 13:03 32.04492 -94.10164 38886 ft 460 kts 18°
2026-05-05 13:04 32.09974 -94.06301 38874 ft 459 kts 18°
2026-05-05 13:04 32.15447 -94.02438 38884 ft 458 kts 19°
2026-05-05 13:05 32.20925 -93.98566 38880 ft 460 kts 19°
2026-05-05 13:05 32.26427 -93.94674 38874 ft 462 kts 18°
2026-05-05 13:06 32.31908 -93.90788 38867 ft 463 kts 19°
2026-05-05 13:06 32.37445 -93.86854 38870 ft 465 kts 19°
2026-05-05 13:07 32.43003 -93.82899 38866 ft 467 kts 19°
2026-05-05 13:07 32.48578 -93.78927 38868 ft 468 kts 19°
2026-05-05 13:08 32.54164 -93.74939 38858 ft 469 kts 19°
2026-05-05 13:08 32.59745 -93.70951 38871 ft 468 kts 19°
2026-05-05 13:09 32.65314 -93.66966 38859 ft 467 kts 18°
2026-05-05 13:09 32.70879 -93.62976 38866 ft 466 kts 18°
2026-05-05 13:10 32.76422 -93.58999 38866 ft 465 kts 18°
2026-05-05 13:10 32.81900 -93.55060 38874 ft 463 kts 18°
2026-05-05 13:11 32.87410 -93.51096 38850 ft 462 kts 18°
2026-05-05 13:11 32.92901 -93.47136 38866 ft 460 kts 18°
2026-05-05 13:12 32.98374 -93.43187 38857 ft 460 kts 18°
2026-05-05 13:12 33.03856 -93.39328 38849 ft 456 kts 16°
2026-05-05 13:13 33.09365 -93.35586 38856 ft 455 kts 16°
2026-05-05 13:13 33.14866 -93.31846 38843 ft 456 kts 16°
2026-05-05 13:14 33.20369 -93.28082 38860 ft 456 kts 16°
2026-05-05 13:14 33.25878 -93.24294 38844 ft 458 kts 16°
2026-05-05 13:15 33.31362 -93.20514 38859 ft 459 kts 16°
2026-05-05 13:15 33.36895 -93.16699 38848 ft 459 kts 16°
2026-05-05 13:16 33.42435 -93.12871 38852 ft 460 kts 16°
2026-05-05 13:16 33.47974 -93.09035 38856 ft 460 kts 16°
2026-05-05 13:17 33.53519 -93.05192 38862 ft 461 kts 16°
2026-05-05 13:17 33.59074 -93.01338 38862 ft 461 kts 16°
2026-05-05 13:18 33.64626 -92.97476 38860 ft 461 kts 16°
2026-05-05 13:18 33.70170 -92.93615 38862 ft 461 kts 16°
2026-05-05 13:19 33.75719 -92.89748 38851 ft 461 kts 15°
2026-05-05 13:19 33.81267 -92.85876 38851 ft 461 kts 15°
2026-05-05 13:20 33.86807 -92.81999 38852 ft 461 kts 15°
2026-05-05 13:20 33.92344 -92.78122 38860 ft 460 kts 15°
2026-05-05 13:21 33.97876 -92.74244 38840 ft 460 kts 15°
2026-05-05 13:21 34.03391 -92.70367 38858 ft 458 kts 15°
2026-05-05 13:22 34.08899 -92.66494 38838 ft 459 kts 15°
2026-05-05 13:22 34.14409 -92.62613 38850 ft 458 kts 15°
2026-05-05 13:23 34.19907 -92.58734 38845 ft 457 kts 15°
2026-05-05 13:23 34.25397 -92.54854 38854 ft 457 kts 15°
2026-05-05 13:24 34.30879 -92.50973 38851 ft 457 kts 15°
2026-05-05 13:24 34.36372 -92.47080 38851 ft 457 kts 15°
2026-05-05 13:25 34.41860 -92.43183 38859 ft 457 kts 15°
2026-05-05 13:25 34.47320 -92.39302 38847 ft 458 kts 15°
2026-05-05 13:26 34.52821 -92.35384 38858 ft 459 kts 15°
2026-05-05 13:26 34.58327 -92.31456 38849 ft 460 kts 15°
2026-05-05 13:27 34.63815 -92.27535 38854 ft 460 kts 15°
2026-05-05 13:27 34.69303 -92.23607 38863 ft 460 kts 15°
2026-05-05 13:28 34.74813 -92.19653 38857 ft 460 kts 15°
2026-05-05 13:28 34.80329 -92.15698 38866 ft 461 kts 15°
2026-05-05 13:29 34.85729 -92.11210 38879 ft 474 kts 22°
2026-05-05 13:29 34.91005 -92.06325 38860 ft 478 kts 22°
2026-05-05 13:30 34.96283 -92.01425 38854 ft 477 kts 22°
2026-05-05 13:30 35.01581 -91.96561 38871 ft 476 kts 21°
2026-05-05 13:31 35.06872 -91.91743 38864 ft 473 kts 21°
2026-05-05 13:31 35.12145 -91.86950 38854 ft 472 kts 20°
2026-05-05 13:32 35.17405 -91.82154 38860 ft 471 kts 21°
2026-05-05 13:32 35.22646 -91.77363 38877 ft 470 kts 20°
2026-05-05 13:33 35.27843 -91.72607 38863 ft 470 kts 20°
2026-05-05 13:33 35.33068 -91.67814 38872 ft 469 kts 20°
2026-05-05 13:34 35.38329 -91.62982 38871 ft 469 kts 20°
2026-05-05 13:34 35.43519 -91.58205 38872 ft 470 kts 20°
2026-05-05 13:35 35.48750 -91.53385 38878 ft 470 kts 20°
2026-05-05 13:35 35.53989 -91.48547 38866 ft 472 kts 21°
2026-05-05 13:36 35.59232 -91.43698 38869 ft 472 kts 20°
2026-05-05 13:36 35.64471 -91.38843 38877 ft 472 kts 21°
2026-05-05 13:37 35.69722 -91.33971 38887 ft 472 kts 20°
2026-05-05 13:37 35.74963 -91.29101 38878 ft 472 kts 20°
2026-05-05 13:38 35.80206 -91.24219 38873 ft 472 kts 20°
2026-05-05 13:38 35.85448 -91.19329 38864 ft 472 kts 20°
2026-05-05 13:39 35.90678 -91.14440 38882 ft 472 kts 20°
2026-05-05 13:39 35.95905 -91.09548 38857 ft 471 kts 20°
2026-05-05 13:40 36.01113 -91.04664 38871 ft 469 kts 20°
2026-05-05 13:40 36.06309 -90.99785 38871 ft 468 kts 20°
2026-05-05 13:41 36.11476 -90.94903 38856 ft 471 kts 22°
2026-05-05 13:41 36.16365 -90.89311 38878 ft 482 kts 28°
2026-05-05 13:42 36.21068 -90.83369 38865 ft 483 kts 29°
2026-05-05 13:42 36.25784 -90.77461 38850 ft 481 kts 28°
2026-05-05 13:43 36.30528 -90.71638 38814 ft 475 kts 27°
2026-05-05 13:43 36.32834 -90.68812 38444 ft 469 kts 27°
2026-05-05 13:43 36.35162 -90.65974 37894 ft 469 kts 27°
2026-05-05 13:44 36.37498 -90.63137 37216 ft 471 kts 28°
2026-05-05 13:44 36.39851 -90.60282 36522 ft 475 kts 29°
2026-05-05 13:44 36.42215 -90.57404 35859 ft 476 kts 30°
2026-05-05 13:44 36.44581 -90.54513 35134 ft 480 kts 30°
2026-05-05 13:45 36.46161 -90.52581 34590 ft 483 kts 31°
2026-05-05 13:45 36.48570 -90.49634 33732 ft 489 kts 32°
2026-05-05 13:45 36.50998 -90.46656 32943 ft 492 kts 33°
2026-05-05 13:45 36.53438 -90.43655 32227 ft 493 kts 34°
2026-05-05 13:46 36.55883 -90.40642 31347 ft 498 kts 35°
2026-05-05 13:46 36.58360 -90.37593 30365 ft 504 kts 36°
2026-05-05 13:46 36.60837 -90.34534 30073 ft 499 kts 37°
2026-05-05 13:46 36.63307 -90.31481 30028 ft 505 kts 37°
2026-05-05 13:47 36.65823 -90.28377 29883 ft 513 kts 37°
2026-05-05 13:47 36.68370 -90.25233 29862 ft 515 kts 38°
2026-05-05 13:47 36.73444 -90.18942 29851 ft 514 kts 38°
2026-05-05 13:48 36.78501 -90.12664 29852 ft 514 kts 38°
2026-05-05 13:48 36.81022 -90.09530 29665 ft 510 kts 38°
2026-05-05 13:48 36.83491 -90.06457 29386 ft 506 kts 38°
2026-05-05 13:49 36.85959 -90.03381 29149 ft 501 kts 38°
2026-05-05 13:49 36.88426 -90.00309 28910 ft 499 kts 38°
2026-05-05 13:49 36.93355 -89.94164 28872 ft 497 kts 38°
2026-05-05 13:50 36.98226 -89.88082 28872 ft 499 kts 38°
2026-05-05 13:50 37.03128 -89.81943 28869 ft 499 kts 38°
2026-05-05 13:51 37.08036 -89.75783 28870 ft 500 kts 39°
2026-05-05 13:51 37.12947 -89.69609 28872 ft 500 kts 39°
2026-05-05 13:52 37.17909 -89.63510 28628 ft 495 kts 31°
2026-05-05 13:52 37.20833 -89.61479 28177 ft 466 kts 11°
2026-05-05 13:52 37.23902 -89.60566 27632 ft 446 kts 357°
2026-05-05 13:53 37.26955 -89.60481 27003 ft 432 kts 347°
2026-05-05 13:53 37.29869 -89.61100 26355 ft 418 kts 336°
2026-05-05 13:53 37.32529 -89.62400 25879 ft 406 kts 329°
2026-05-05 13:53 37.35097 -89.63834 25262 ft 404 kts 329°
2026-05-05 13:54 37.37647 -89.65276 24777 ft 400 kts 329°
2026-05-05 13:54 37.40181 -89.66699 24210 ft 398 kts 329°
2026-05-05 13:54 37.42708 -89.68102 23687 ft 396 kts 330°
2026-05-05 13:54 37.45225 -89.69489 23149 ft 394 kts 330°
2026-05-05 13:55 37.47728 -89.70863 22625 ft 392 kts 330°
2026-05-05 13:55 37.50220 -89.72230 22098 ft 390 kts 330°
2026-05-05 13:55 37.52684 -89.73579 21931 ft 379 kts 330°
2026-05-05 13:55 37.55070 -89.74885 21669 ft 371 kts 330°
2026-05-05 13:56 37.57457 -89.76201 20952 ft 376 kts 330°
2026-05-05 13:56 37.59835 -89.77509 20528 ft 373 kts 330°
2026-05-05 13:56 37.62223 -89.78825 20042 ft 372 kts 330°
2026-05-05 13:56 37.64582 -89.80122 19591 ft 370 kts 330°
2026-05-05 13:57 37.66936 -89.81418 19147 ft 368 kts 330°
2026-05-05 13:57 37.69271 -89.82705 18699 ft 366 kts 330°
2026-05-05 13:57 37.71599 -89.83989 18253 ft 364 kts 331°
2026-05-05 13:57 37.73906 -89.85264 17820 ft 362 kts 331°
2026-05-05 13:58 37.76208 -89.86536 17374 ft 360 kts 331°
2026-05-05 13:58 37.78493 -89.87800 16946 ft 358 kts 331°
2026-05-05 13:58 37.80770 -89.89059 16570 ft 355 kts 331°
2026-05-05 13:58 37.83031 -89.90310 16125 ft 354 kts 331°
2026-05-05 13:59 37.87518 -89.92790 15279 ft 351 kts 332°
2026-05-05 13:59 37.89765 -89.93995 14859 ft 349 kts 332°
2026-05-05 14:00 37.94182 -89.96358 14034 ft 346 kts 332°
2026-05-05 14:00 37.96386 -89.97565 13679 ft 345 kts 331°
2026-05-05 14:00 37.98577 -89.98800 13356 ft 345 kts 331°
2026-05-05 14:00 38.00778 -90.00050 13014 ft 348 kts 331°
2026-05-05 14:01 38.02994 -90.01307 12684 ft 351 kts 331°
2026-05-05 14:01 38.05220 -90.02570 12346 ft 350 kts 332°
2026-05-05 14:01 38.07444 -90.03829 12004 ft 350 kts 332°
2026-05-05 14:01 38.09667 -90.05087 11667 ft 349 kts 332°
2026-05-05 14:02 38.11880 -90.06339 11326 ft 348 kts 332°
2026-05-05 14:02 38.14205 -90.07197 10903 ft 352 kts 351°
2026-05-05 14:02 38.16610 -90.07396 10716 ft 341 kts 353°
2026-05-05 14:02 38.18954 -90.07596 10308 ft 330 kts 352°
2026-05-05 14:03 38.21191 -90.07820 10020 ft 317 kts 351°
2026-05-05 14:03 38.23333 -90.08054 9898 ft 299 kts 351°
2026-05-05 14:03 38.25374 -90.08279 9441 ft 296 kts 351°
2026-05-05 14:03 38.27385 -90.08504 9194 ft 286 kts 351°
2026-05-05 14:04 38.29372 -90.08730 8877 ft 285 kts 350°
2026-05-05 14:04 38.31344 -90.08952 8605 ft 284 kts 351°
2026-05-05 14:04 38.33304 -90.09171 8331 ft 283 kts 351°
2026-05-05 14:04 38.35253 -90.09386 8047 ft 281 kts 351°
2026-05-05 14:05 38.37187 -90.09658 7757 ft 278 kts 347°
2026-05-05 14:05 38.39090 -90.10058 7483 ft 276 kts 345°
2026-05-05 14:05 38.40978 -90.10508 7218 ft 275 kts 344°
2026-05-05 14:05 38.42853 -90.10966 6933 ft 273 kts 345°
2026-05-05 14:06 38.44693 -90.11406 6660 ft 272 kts 345°
2026-05-05 14:06 38.46547 -90.11838 6388 ft 271 kts 345°
2026-05-05 14:06 38.48400 -90.12284 6116 ft 270 kts 345°
2026-05-05 14:06 38.50248 -90.12717 5845 ft 271 kts 346°
2026-05-05 14:07 38.52106 -90.13127 5558 ft 271 kts 346°
2026-05-05 14:07 38.53939 -90.13507 5294 ft 273 kts 347°
2026-05-05 14:07 38.55815 -90.13896 5014 ft 272 kts 347°
2026-05-05 14:07 38.57666 -90.14266 4874 ft 262 kts 348°
2026-05-05 14:08 38.59395 -90.14598 4764 ft 240 kts 346°
2026-05-05 14:08 38.60969 -90.14959 4625 ft 220 kts 344°
2026-05-05 14:08 38.62401 -90.15365 4503 ft 202 kts 342°
2026-05-05 14:08 38.63723 -90.15741 4364 ft 187 kts 343°
2026-05-05 14:09 38.64954 -90.16232 3865 ft 189 kts 320°
2026-05-05 14:09 38.65731 -90.17462 3620 ft 174 kts 298°
2026-05-05 14:09 38.66371 -90.18722 3367 ft 163 kts 300°
2026-05-05 14:09 38.66989 -90.19948 3142 ft 166 kts 299°
2026-05-05 14:10 38.67613 -90.21218 2911 ft 170 kts 298°
2026-05-05 14:10 38.68250 -90.22516 2690 ft 174 kts 299°
2026-05-05 14:10 38.68901 -90.23845 2457 ft 178 kts 299°
2026-05-05 14:10 38.69562 -90.25192 2206 ft 177 kts 300°
2026-05-05 14:11 38.70174 -90.26458 1994 ft 159 kts 296°
2026-05-05 14:11 38.70670 -90.27570 1729 ft 157 kts 303°
2026-05-05 14:11 38.71266 -90.28740 1512 ft 159 kts 300°
2026-05-05 14:11 38.71858 -90.29909 1343 ft 161 kts 304°
2026-05-05 14:12 38.72412 -90.31036 1148 ft 153 kts 304°
2026-05-05 14:12 38.72958 -90.32129 965 ft 140 kts 302°
2026-05-05 14:12 38.73469 -90.33139 821 ft 137 kts 305°
2026-05-05 14:12 38.73980 -90.34202 633 ft 143 kts 302°
2026-05-05 14:13 38.74482 -90.35211 582 ft 119 kts 303°
2026-05-05 14:13 38.74807 -90.35880 571 ft 58 kts 302°
2026-05-05 14:13 38.74878 -90.36110 563 ft 15 kts 235°
2026-05-05 14:13 38.74792 -90.36185 565 ft 15 kts 213°
2026-05-05 14:14 38.74795 -90.36242 561 ft 8 kts 293°
2026-05-05 14:14 38.74804 -90.36338 564 ft 13 kts 236°
2026-05-05 14:14 38.74723 -90.36407 558 ft 17 kts 214°
2026-05-05 14:14 38.74592 -90.36512 559 ft 26 kts 212°
2026-05-05 14:15 38.74484 -90.36501 561 ft 16 kts 123°
2026-05-05 14:15 38.74423 -90.36379 560 ft 20 kts 123°
2026-05-05 14:15 38.74328 -90.36191 571 ft 29 kts 122°
2026-05-05 14:15 38.74218 -90.35961 572 ft 30 kts 122°
2026-05-05 14:16 38.74110 -90.35741 574 ft 28 kts 122°
2026-05-05 14:16 38.74022 -90.35570 575 ft 20 kts 121°
2026-05-05 14:16 38.73955 -90.35433 578 ft 18 kts 123°
2026-05-05 14:16 38.73889 -90.35304 582 ft 17 kts 123°
2026-05-05 14:17 38.73830 -90.35279 583 ft 9 kts 207°
2026-05-05 14:17 38.73810 -90.35339 581 ft 9 kts 300°
2026-05-05 14:17 38.73831 -90.35382 580 ft 1 kts 303°
2026-05-05 14:17 38.73831 -90.35384 579 ft 0 kts 303°
2026-05-05 14:20 38.73832 -90.35384 579 ft 0 kts 303°
2026-05-05 14:20 38.73837 -90.35396 578 ft 3 kts 303°
2026-05-05 14:20 38.73859 -90.35439 577 ft 9 kts 298°
2026-05-05 14:21 38.73824 -90.35456 577 ft 9 kts 123°
2026-05-05 14:21 38.73774 -90.35449 577 ft 8 kts 211°
2026-05-05 14:21 38.73755 -90.35465 577 ft 0 kts 216°